Regional Weather Roundup
Issued by NWS

Home | Current Version | Previous Version | Graphics & Text | Print | Product List | Glossary On
Versions: 1 2 3 4 5 6 7 8 9 10 11 12 13 14 15 16 17 18 19 20 21 22 23 24 25 26 27 28 29 30 31 32 33 34 35 36 37 38 39 40 41 42 43 44 45 46 47 48
000
ASUS45 KCYS 290010
RWRWY

WYOMING REGIONAL WEATHER ROUNDUP
NATIONAL WEATHER SERVICE CHEYENNE WY
500 PM MST WED JAN 28 2015

NOTE:  "FAIR" INDICATES FEW OR NO CLOUDS BELOW 12,000 FEET
WITH NO SIGNIFICANT WEATHER AND/OR OBSTRUCTIONS TO VISIBILITY.

WYZ001-290100-
YELLOWSTONE NATIONAL PARK

CITY           SKY/WX    TMP DP  RH WIND       PRES   REMARKS
LK YELLOWSTONE   N/A     30  26  85 W5        30.29R WCI  25
6HR MIN TEMP:  30; 6HR MAX TEMP:  35; 6HR PCP:  0.02;

W YELLOWSTONE  NOT AVBL

$$
WYZ002>013-054>058-071-098>099-290100-
NORTHERN WYOMING

CITY           SKY/WX    TMP DP  RH WIND       PRES   REMARKS
JACKSON        PTCLDY    39  28  65 W6        30.27R WCI  35
CODY           FAIR      41  27  56 NW3       30.24R
GREYBULL       FOG       35  35 100 SE3       30.22R VSB<1/4
6HR MIN TEMP:  35; 6HR MAX TEMP:  40;

WORLAND        CLOUDY    36  33  89 SW3       30.22R
6HR MIN TEMP:  35; 6HR MAX TEMP:  38; 6HR PCP:  0.01;

SHERIDAN       CLOUDY    43  31  62 NW13      30.24R
6HR MIN TEMP:  43; 6HR MAX TEMP:  52;

BUFFALO        CLOUDY    42  29  59 N18G26    30.23R
6HR MIN TEMP:  42; 6HR MAX TEMP:  49;

GILLETTE       FAIR      40  29  64 NW15      30.19R WCI  32
6HR MIN TEMP:  40; 6HR MAX TEMP:  50;

HULETT           N/A    N/A N/A N/A MISG        N/A
NEWCASTLE      FAIR      41  28  60 NW20G25   30.14R

$$
WYZ014>020-022>026-101>103-290100-
CENTRAL WYOMING

CITY           SKY/WX    TMP DP  RH WIND       PRES   REMARKS
BIG PINEY      FAIR      38  27  64 N12       30.26R WCI  30
6HR MIN TEMP:  33; 6HR MAX TEMP:  42;

PINEDALE       FAIR      34  28  80 NW15      30.25R WCI  24
DUBOIS         CLOUDY    36  27  69 W9        30.22R WCI  29
LANDER         CLOUDY    41  31  67 CALM      30.21R
6HR MIN TEMP:  40; 6HR MAX TEMP:  46;

RIVERTON       CLOUDY    42  33  70 SW6       30.23R
6HR MIN TEMP:  40; 6HR MAX TEMP:  43;

CASPER         CLOUDY    38  34  85 NE8       30.22R WCI  32
6HR MIN TEMP:  37; 6HR MAX TEMP:  40; 6HR PCP:  0.10;

DOUGLAS        CLOUDY    41  36  82 NW14      30.19R
6HR MIN TEMP:  36; 6HR MAX TEMP:  44; 6HR PCP:  0.09;


$$
WYZ021-027>030-104>119-290100-
SOUTHERN WYOMING

CITY           SKY/WX    TMP DP  RH WIND       PRES   REMARKS
EVANSTON       CLOUDY    37  31  78 SW7       30.29R WCI  32
6HR MIN TEMP:  36; 6HR MAX TEMP:  38; 6HR PCP: TRACE;

KEMMERER       FAIR      34  32  93 W13       30.28S WCI  25
FORT BRIDGER   FAIR      40  34  79 W9        30.31R WCI  34
ROCK SPRINGS   CLOUDY    39  30  70 W14       30.25R WCI  31
6HR MIN TEMP:  38; 6HR MAX TEMP:  43;

DIXON          CLOUDY    39  32  75 NW3       30.29R
RAWLINS        CLOUDY    39  31  72 W8        30.22R WCI  33
6HR MIN TEMP:  38; 6HR MAX TEMP:  45; 6HR PCP:  0.02;

SARATOGA       CLOUDY    37  32  81 W12       30.24R WCI  30
LARAMIE        MIX PCPN  36  29  75 NW18      30.20R WCI  26
6HR MIN TEMP:  36; 6HR MAX TEMP:  45; 6HR PCP: TRACE;

CHEYENNE       MOCLDY    41  32  70 N16G23    30.15R
6HR MIN TEMP:  41; 6HR MAX TEMP:  50;

TORRINGTON     FAIR      45  35  68 NW10      30.13R
6HR MIN TEMP:  45; 6HR MAX TEMP:  53; 6HR PCP: TRACE;

PINE BLUFFS    MOCLDY    41  34  75 NW20G29   30.15R

$$



USA.gov is the U.S. government's official web portal to all federal, state and local government web resources and services.